1499277600.24,39154,17.88,74302.8,5.41,3.15,2.73,0,*76
1499277601.46,39155,17.88,74306.8,5.41,3.07,2.61,0,*77
1499277602.69,39156,17.88,74306.8,5.41,3.03,2.51,0,*73
1499277603.89,39157,17.88,74302.3,5.41,2.91,2.25,0,*7B
1499277605.12,39158,17.88,74300.8,5.41,2.81,2.13,0,*70
1499277606.34,39159,17.88,74302.5,5.37,2.69,2.05,0,*71
1499277607.56,39160,17.88,74304.0,5.37,2.69,1.97,0,*73
1499277608.79,39161,17.88,74310.5,5.37,2.59,1.85,0,*72
1499277609.99,39162,17.88,74306.8,5.41,2.61,1.85,0,*7B
1499277611.2,39163,17.88,74306.3,5.37,2.59,1.83,0,*76
1499277612.42,39164,17.88,74304.8,5.37,2.47,1.63,0,*70
1499277613.65,39165,17.88,74290.8,5.37,2.43,1.63,0,*75
1499277614.87,39166,17.88,74294.5,5.37,2.21,1.55,0,*77
1499277616.09,39167,17.88,74298.3,5.37,2.09,1.47,0,*7F
1499277617.31,39168,17.88,74310.3,5.41,2.09,1.47,0,*71
1499277618.53,39169,17.88,74300.3,5.37,1.93,1.47,0,*71
1499277619.75,39170,17.88,74302.3,5.37,1.93,1.55,0,*7A
1499277620.98,39171,17.88,74300.0,5.37,1.85,1.59,0,*70
1499277622.2,39172,17.88,74300.3,5.37,1.85,1.71,0,*79
1499277623.38,39173,17.88,74302.0,5.33,1.83,1.79,0,*72
1499277624.58,39174,17.88,74298.3,5.35,1.83,1.79,0,*73
1499277625.8,39175,17.88,74300.3,5.35,1.79,1.89,0,*78
1499277627.03,39176,17.94,74302.3,5.35,1.79,1.93,0,*70
1499277628.28,39177,17.88,74298.5,5.35,1.71,2.01,0,*71
1499277629.54,39178,17.88,74302.5,5.35,1.71,2.13,0,*7D
1499277630.77,39179,17.94,74302.0,5.35,1.79,2.25,0,*71
1499277632.01,39180,17.88,74302.3,5.35,1.79,2.39,0,*7A
1499277633.23,39181,17.88,74298.0,5.35,1.83,2.39,0,*7E
1499277634.49,39182,17.88,74296.3,5.35,1.93,2.43,0,*71
1499277635.72,39183,17.88,74300.3,5.33,1.89,2.51,0,*7E
1499277636.98,39184,17.88,74296.5,5.35,2.05,2.51,0,*78
1499277638.21,39185,17.88,74296.8,5.37,2.17,2.55,0,*7C
1499277639.43,39186,17.88,74294.0,5.35,2.01,2.27,0,*7F
1499277640.67,39187,17.88,74298.8,5.33,2.17,2.39,0,*70
1499277641.92,39188,17.88,74300.0,5.35,2.25,2.39,0,*78
1499277643.15,39189,17.88,74300.3,5.35,2.27,2.43,0,*76
1499277644.33,39190,17.88,74302.8,5.33,2.27,2.27,0,*7A
1499277645.5,39191,17.88,74300.3,5.33,2.27,2.27,0,*7B
1499277646.7,39192,17.88,74300.3,5.35,2.31,2.27,0,*79
1499277647.9,39193,17.88,74298.3,5.35,2.31,2.27,0,*78
1499277649.11,39194,17.88,74296.8,5.35,2.27,2.27,0,*78
1499277650.31,39195,17.88,74296.3,5.35,2.27,2.27,0,*79
1499277651.48,39196,17.88,74298.5,5.33,2.27,2.27,0,*7C
1499277652.74,39197,17.88,74294.5,5.35,2.17,2.25,0,*7A
1499277653.98,39198,17.88,74298.3,5.33,2.17,2.17,0,*72
1499277655.2,39199,17.88,74296.0,5.33,2.05,2.17,0,*70
1499277656.46,39200,17.88,74292.8,5.35,2.01,2.17,0,*71
1499277657.72,39201,17.88,74296.0,5.35,1.89,2.13,0,*77
1499277658.97,39202,17.88,74294.0,5.35,1.89,2.17,0,*70
1499277660.22,39203,17.88,74292.0,5.35,1.89,2.17,0,*71
1499277661.45,39204,17.88,74294.5,5.35,1.79,2.25,0,*78
1499277662.68,39205,17.88,74294.8,5.35,1.83,2.25,0,*7C
1499277663.94,39206,17.88,74290.3,5.35,1.71,2.25,0,*72
1499277665.16,39207,17.88,74294.0,5.33,1.59,2.25,0,*7F
1499277666.41,39208,17.88,74290.3,5.35,1.59,2.39,0,*7B
1499277667.64,39209,17.88,74290.0,5.33,1.67,2.39,0,*71
1499277668.89,39210,17.88,74288.3,5.35,1.71,2.43,0,*75
1499277670.13,39211,17.88,74292.5,5.35,1.79,2.51,0,*7F
1499277671.36,39212,17.88,74292.8,5.35,1.83,2.51,0,*79
1499277672.6,39213,17.88,74294.8,5.35,1.83,2.51,0,*78
1499277673.82,39214,17.88,74294.8,5.33,1.89,2.43,0,*70
1499277675.07,39215,17.88,74296.3,5.35,1.93,2.39,0,*71
1499277676.3,39216,17.88,74294.3,5.35,2.05,2.27,0,*71
1499277677.56,39217,17.88,74294.0,5.35,2.13,2.17,0,*74
1499277678.81,39218,17.88,74294.3,5.35,2.05,1.93,0,*73
1499277680.04,39219,17.88,74298.8,5.35,2.05,1.83,0,*73
1499277681.26,39220,17.88,74296.5,5.37,1.93,1.67,0,*7D
1499277682.48,39221,17.88,74294.5,5.37,1.93,1.55,0,*7D
1499277683.7,39222,17.88,74294.3,5.37,1.93,1.47,0,*7D
1499277684.92,39223,17.88,74296.0,5.35,1.89,1.41,0,*73
1499277686.14,39224,17.88,74296.3,5.35,1.83,1.43,0,*7C
1499277687.4,39225,17.88,74300.5,5.35,1.71,1.33,0,*77
1499277688.66,39226,17.88,74302.5,5.35,1.55,1.29,0,*79
1499277689.91,39227,17.88,74300.3,5.35,1.59,1.21,0,*7C
1499277691.16,39228,17.88,74302.0,5.35,1.59,1.21,0,*73
1499277692.42,39229,17.88,74306.8,5.35,1.71,1.29,0,*70
1499277693.67,39230,17.88,74300.5,5.35,1.67,1.21,0,*77
1499277694.93,39231,17.88,74306.8,5.35,1.55,1.29,0,*7F
1499277696.15,39232,17.88,74296.8,5.33,1.67,1.29,0,*7B
1499277697.4,39233,17.88,74298.0,5.35,1.55,1.17,0,*70
1499277698.6,39234,17.88,74294.8,5.33,1.43,1.05,0,*75
1499277699.81,39235,17.88,74292.8,5.33,1.33,1.05,0,*73
1499277701.04,39236,17.88,74294.8,5.37,1.37,1.13,0,*77
1499277702.27,39237,17.88,74292.8,5.37,1.25,1.09,0,*7E
1499277703.51,39238,17.88,74296.8,5.37,1.13,1.09,0,*74
1499277704.68,39239,17.88,74296.0,5.37,1.01,1.01,0,*7E
1499277705.92,39240,17.88,74294.8,5.37,1.09,1.09,0,*70
1499277707.12,39241,17.88,74296.0,5.37,0.97,1.09,0,*47
1499277708.34,39242,17.88,74298.0,5.37,0.91,1.13,0,*49
1499277709.57,39243,17.88,74294.3,5.37,0.87,1.13,0,*4F
1499277710.78,39244,17.88,74298.3,5.37,0.71,1.13,0,*41
1499277712.0,39245,17.88,74300.0,5.37,0.59,1.21,0,*4B
1499277713.22,39246,17.88,74296.5,5.37,0.51,1.13,0,*41
1499277714.44,39247,17.88,74296.0,5.35,0.43,1.17,0,*45
1499277715.65,39248,17.88,74298.5,5.37,0.41,1.25,0,*4B
1499277716.87,39249,17.88,74302.0,5.37,0.29,1.13,0,*41
1499277718.08,39250,17.88,74306.3,5.41,0.17,1.13,0,*45
1499277719.27,39251,17.88,74304.8,5.37,0.05,1.13,0,*76
1499277720.48,39252,17.88,74306.0,5.41,0.21,1.13,0,*42
1499277721.67,39253,17.88,74306.5,5.37,0.01,1.09,0,*7B
1499277722.86,39254,17.88,74304.0,5.37,0.05,1.13,0,*73
1499277724.08,39255,17.88,74308.0,5.37,0.17,1.09,0,*4A
1499277725.29,39256,17.88,74310.3,5.37,0.13,1.09,0,*4D
1499277726.51,39257,17.88,74306.8,5.37,0.17,1.13,0,*43
1499277727.72,39258,17.88,74302.8,5.37,0.13,1.13,0,*48
1499277728.91,39259,17.88,74306.8,5.37,0.05,1.09,0,*75
1499277730.11,39260,17.88,74304.8,5.37,0.05,1.09,0,*7F
1499277731.3,39261,17.88,74304.5,5.37,0.05,1.09,0,*7E
1499277732.46,39262,17.88,74304.5,5.37,0.01,1.01,0,*71
1499277733.61,39263,17.88,74300.3,5.37,0.01,0.97,0,*4E
1499277734.77,39264,17.88,74310.0,5.37,0.01,0.97,0,*49
1499277735.93,39265,17.88,74310.3,5.37,0.01,1.01,0,*76
1499277737.14,39266,17.88,74308.0,5.35,-0.03,0.95,0,*64
1499277738.35,39267,17.88,74306.5,5.35,0.13,0.97,0,*7B
1499277739.56,39268,17.88,74300.3,5.35,0.09,0.95,0,*4D
1499277740.78,39269,17.88,74304.0,5.35,0.09,0.83,0,*4B
1499277742.0,39270,17.88,74304.0,5.35,0.09,0.83,0,*43
1499277743.24,39271,17.88,74302.8,5.35,0.25,0.87,0,*78
1499277744.47,39272,17.88,74300.5,5.35,0.33,0.95,0,*7F
1499277745.68,39273,17.88,74298.5,5.35,0.37,0.97,0,*78
1499277746.86,39274,17.88,74302.3,5.33,0.37,0.97,0,*79
1499277748.1,39275,17.88,74302.3,5.35,0.37,0.87,0,*7F
1499277749.31,39276,17.88,74300.8,5.35,0.43,0.83,0,*7B
1499277750.55,39277,17.88,74302.5,5.35,0.47,0.79,0,*7B
1499277751.8,39278,17.88,74300.5,5.35,0.47,0.71,0,*7C
1499277753.01,39279,17.88,74306.5,5.33,0.47,0.71,0,*7B
1499277754.22,39280,17.88,74302.3,5.37,0.63,0.71,0,*7F
1499277755.46,39281,17.88,74304.3,5.35,0.59,0.59,0,*7F
1499277756.67,39282,17.88,74304.5,5.33,0.67,0.59,0,*77
1499277757.92,39283,17.88,74304.3,5.35,0.71,0.55,0,*7B
1499277759.16,39284,17.88,74302.3,5.35,0.71,0.47,0,*7F
1499277760.4,39285,17.88,74304.3,5.35,0.67,0.37,0,*7E
1499277761.61,39286,17.88,74306.8,5.33,0.67,0.37,0,*7B
1499277762.84,39287,17.88,74304.3,5.35,0.67,0.33,0,*78
1499277764.08,39288,17.88,74310.3,5.35,0.71,0.25,0,*77
1499277765.32,39289,17.88,74308.8,5.35,0.79,0.25,0,*7E
1499277766.57,39290,17.88,74310.0,5.35,0.79,0.13,0,*73
1499277767.79,39291,17.88,74312.3,5.35,0.79,0.01,0,*41
1499277769.0,39292,17.88,74312.3,5.35,0.79,0.01,0,*42
1499277770.23,39293,17.88,74302.5,5.35,0.71,-0.15,0,*53
1499277771.46,39294,17.88,74308.5,5.33,0.55,-0.27,0,*55
1499277772.62,39295,17.88,74310.3,5.33,0.43,-0.37,0,*52
1499277773.82,39296,17.88,74312.8,5.35,0.43,-0.41,0,*56
1499277775.05,39297,17.88,74310.3,5.35,0.37,-0.41,0,*54
1499277776.22,39298,17.88,74304.0,5.33,0.43,-0.41,0,*5E
1499277777.38,39299,17.88,74306.0,5.33,0.43,-0.49,0,*57
1499277778.55,39300,17.88,74306.0,5.33,0.43,-0.53,0,*5D
1499277779.73,39301,17.88,74306.0,5.35,0.43,-0.65,0,*5F
1499277780.93,39302,17.88,74298.3,5.35,0.43,-0.81,0,*56
1499277782.12,39303,17.88,74296.3,5.33,0.43,-1.01,0,*68
1499277783.33,39304,17.88,74294.0,5.33,0.33,-1.05,0,*6C
1499277784.56,39305,17.88,74298.8,5.35,0.33,-1.17,0,*68
1499277785.78,39306,17.88,74296.3,5.35,0.21,-1.29,0,*65
1499277787.04,39307,17.88,74298.3,5.35,0.25,-1.39,0,*61
1499277788.21,39308,17.88,74290.5,5.33,0.09,-1.51,0,*58
1499277789.38,39309,17.88,74286.8,5.33,0.01,-1.63,0,*50
1499277790.61,39310,17.88,74294.3,5.31,-0.03,-1.91,0,*78
1499277791.8,39311,17.88,74292.8,5.33,0.01,-1.87,0,*53
1499277793.0,39312,17.88,74294.3,5.33,-0.03,-1.99,0,*70
1499277794.21,39313,17.88,74292.8,5.35,-0.07,-2.15,0,*74
1499277795.39,39314,17.88,74296.5,5.33,-0.15,-2.23,0,*43
1499277796.62,39315,17.88,74300.8,5.35,-0.27,-2.43,0,*43
1499277797.85,39316,17.88,74288.3,5.31,-0.29,-2.59,0,*41
1499277799.06,39317,17.88,74296.8,5.33,-0.37,-2.67,0,*40
1499277800.24,39318,17.88,74288.0,5.33,-0.41,-2.79,0,*41
1499277801.43,39319,17.88,74286.3,5.33,-0.53,-2.99,0,*4D
1499277802.61,39320,17.88,74284.8,5.33,-0.73,-3.15,0,*40
1499277803.79,39321,17.88,74296.0,5.33,-0.73,-3.19,0,*4D
1499277804.97,39322,17.88,74300.0,5.33,-0.77,-3.39,0,*48
1499277806.23,39323,17.88,74300.8,5.31,-0.97,-3.43,0,*48
1499277807.45,39324,17.88,74302.0,5.33,-0.93,-3.51,0,*4A
1499277808.68,39325,17.88,74292.0,5.33,-1.05,-3.51,0,*75
1499277809.89,39326,17.88,74290.8,5.33,-1.17,-3.67,0,*70
1499277811.1,39327,17.88,74296.8,5.29,-1.21,-3.71,0,*78
1499277812.32,39328,17.88,74296.3,5.31,-1.33,-3.79,0,*75
1499277813.53,39329,17.88,74302.5,5.31,-1.51,-3.91,0,*76
1499277814.74,39330,17.88,74302.8,5.31,-1.67,-3.91,0,*7B
1499277815.95,39331,17.88,74288.0,5.31,-1.79,-4.05,0,*7F
1499277817.16,39332,17.88,74282.0,5.33,-1.87,-3.91,0,*75
1499277818.4,39333,17.88,74290.3,5.31,-2.03,-3.91,0,*79
1499277819.61,39334,17.88,74290.8,5.31,-2.15,-3.83,0,*7A
1499277820.82,39335,17.88,74292.0,5.31,-2.27,-3.83,0,*7A
1499277822.0,39336,17.88,74288.5,5.33,-2.35,-3.87,0,*7C
1499277823.24,39337,17.88,74282.0,5.31,-2.47,-3.91,0,*7D
1499277824.48,39338,17.88,74282.5,5.31,-2.59,-3.91,0,*7D
1499277825.71,39339,17.88,74286.3,5.31,-2.59,-4.05,0,*76
1499277826.95,39340,17.88,74288.3,5.31,-2.67,-4.21,0,*73
1499277828.16,39341,17.88,74284.8,5.31,-2.79,-4.33,0,*7E
1499277829.37,39342,17.88,74280.5,5.31,-2.83,-4.45,0,*79
1499277830.61,39343,17.88,74284.3,5.31,-2.83,-4.69,0,*76
1499277831.84,39344,17.88,74292.5,5.31,-2.83,-4.85,0,*73
1499277833.09,39345,17.88,74292.8,5.31,-2.95,-5.03,0,*7A
1499277834.31,39346,17.88,74296.3,5.31,-2.95,-5.39,0,*70
1499277835.55,39347,17.88,74296.0,5.31,-3.07,-5.73,0,*75
1499277836.76,39348,17.88,74292.0,5.31,-3.19,-6.05,0,*77
1499277837.96,39349,17.88,74284.3,5.31,-3.23,-6.39,0,*70
1499277839.18,39350,17.88,74284.3,5.31,-3.35,-6.55,0,*75
1499277840.45,39351,17.88,74282.0,5.31,-3.55,-6.93,0,*78
1499277841.68,39352,17.88,74286.0,5.33,-3.63,-7.05,0,*72
1499277842.89,39353,17.88,74288.8,5.33,-3.87,-7.31,0,*7E
1499277844.1,39354,17.88,74294.3,5.29,-4.13,-7.65,0,*79
1499277845.34,39355,17.88,74292.5,5.31,-4.37,-7.91,0,*7C
1499277846.59,39356,17.88,74290.8,5.31,-4.69,-8.03,0,*70
1499277847.82,39357,17.88,74286.8,5.33,-4.85,-8.11,0,*72
1499277849.03,39358,17.88,74290.5,5.31,-5.35,-8.25,0,*72
1499277850.26,39359,17.88,74288.8,5.31,-5.61,-8.25,0,*72
1499277851.47,39360,17.88,74292.5,5.31,-6.01,-8.41,0,*7F
1499277852.68,39361,17.88,74294.0,5.31,-6.31,-8.33,0,*78
1499277853.88,39362,17.88,74296.5,5.31,-6.69,-8.29,0,*7D
1499277855.12,39363,17.88,74298.3,5.31,-6.97,-8.33,0,*76
1499277856.35,39364,17.88,74298.0,5.31,-7.31,-8.33,0,*7C
1499277857.56,39365,17.88,74300.0,5.31,-7.53,-8.41,0,*7C
1499277858.77,39366,17.88,74298.3,5.29,-7.73,-8.29,0,*7A
1499277860.0,39367,17.88,74304.3,5.31,-7.91,-8.25,0,*72
1499277861.24,39368,17.88,74308.0,5.29,-7.99,-8.11,0,*7B
1499277862.45,39369,17.88,74310.3,5.31,-8.25,-8.17,0,*7D
1499277863.68,39370,17.88,74310.3,5.31,-8.33,-8.11,0,*74
1499277864.89,39371,17.88,74306.3,5.29,-8.55,-7.99,0,*73
1499277866.11,39372,17.88,74310.8,5.29,-8.67,-7.91,0,*79
1499277867.32,39373,17.88,74306.5,5.29,-8.81,-7.87,0,*77
1499277868.51,39374,17.88,74310.3,5.29,-8.93,-7.87,0,*73
1499277869.73,39375,17.88,74306.0,5.29,-9.05,-7.65,0,*70
1499277870.98,39376,17.88,74304.8,5.29,-9.11,-7.61,0,*72
1499277872.16,39377,17.88,74300.5,5.29,-9.23,-7.49,0,*78
1499277873.41,39378,17.88,74296.8,5.25,-9.41,-7.57,0,*70
1499277874.65,39379,17.88,74288.8,5.25,-9.41,-7.39,0,*79
1499277875.89,39380,17.88,74294.8,5.25,-9.45,-7.27,0,*74
1499277877.11,39381,17.88,74302.3,5.25,-9.45,-7.23,0,*71
1499277878.35,39382,17.88,74300.8,5.25,-9.45,-7.01,0,*72
1499277879.59,39383,17.88,74304.8,5.25,-9.45,-6.97,0,*7D
1499277880.8,39384,17.88,74290.8,5.23,-9.61,-6.81,0,*7D
1499277882.0,39385,17.88,74292.3,5.25,-9.57,-6.73,0,*72
1499277883.19,39386,17.88,74296.0,5.23,-9.71,-6.69,0,*78
1499277884.38,39387,17.88,74288.0,5.23,-9.71,-6.51,0,*72
1499277885.57,39388,17.88,74284.8,5.23,-9.71,-6.39,0,*73
1499277886.75,39389,17.88,74280.0,5.23,-9.75,-6.13,0,*7E
1499277887.97,39390,17.88,74294.3,5.23,-9.75,-5.89,0,*76
1499277889.18,39391,17.88,74298.0,5.23,-9.71,-5.69,0,*7D
1499277890.39,39392,17.88,74298.5,5.23,-9.61,-5.43,0,*77
1499277891.62,39393,17.88,74290.5,5.23,-9.57,-5.15,0,*70
1499277892.82,39394,17.88,74296.3,5.23,-9.57,-4.99,0,*72
1499277894.05,39395,17.88,74288.0,5.23,-9.57,-4.81,0,*7A
1499277895.26,39396,17.88,74290.0,5.23,-9.57,-4.57,0,*72
1499277896.47,39397,17.88,74294.5,5.23,-9.49,-4.29,0,*75
1499277897.68,39398,17.88,74296.8,5.23,-9.37,-3.91,0,*77
1499277898.87,39399,17.88,74294.3,5.23,-9.23,-3.75,0,*79
1499277900.08,39400,17.88,74294.3,5.23,-9.05,-3.55,0,*78
1499277901.29,39401,17.88,74294.3,5.23,-9.05,-3.43,0,*7E
1499277902.48,39402,17.88,74290.8,5.25,-8.89,-3.19,0,*71
1499277903.69,39403,17.88,74296.5,5.23,-8.81,-2.99,0,*77
1499277904.88,39404,17.88,74298.3,5.23,-8.75,-2.87,0,*74
1499277906.09,39405,17.88,74296.8,5.23,-8.67,-2.67,0,*78
1499277907.3,39406,17.88,74290.5,5.23,-8.67,-2.55,0,*7A
1499277908.49,39407,17.88,74294.5,5.23,-8.41,-2.39,0,*75
1499277909.67,39408,17.88,74294.0,5.23,-8.33,-2.15,0,*71
1499277910.89,39409,17.88,74292.0,5.23,-8.25,-2.03,0,*70
1499277912.13,39410,17.88,74296.5,5.25,-8.07,-1.87,0,*71
1499277913.35,39411,17.88,74298.8,5.23,-8.07,-1.79,0,*77
1499277914.56,39412,17.88,74284.3,5.23,-8.07,-1.79,0,*74
1499277915.75,39413,17.88,74282.8,5.23,-7.83,-1.71,0,*7E
1499277916.94,39414,17.88,74276.5,5.23,-7.83,-1.63,0,*7A
1499277918.16,39415,17.88,74274.8,5.23,-7.73,-1.51,0,*75
1499277919.39,39416,17.88,74282.8,5.23,-7.61,-1.47,0,*72
1499277920.6,39417,17.88,74284.0,5.23,-7.49,-1.35,0,*7C
1499277921.83,39418,17.88,74286.0,5.21,-7.31,-1.25,0,*7F
1499277923.06,39419,17.88,74280.0,5.21,-7.19,-1.13,0,*71
1499277924.3,39420,17.88,74272.5,5.23,-7.05,-1.01,0,*77
1499277925.5,39421,17.88,74268.0,5.23,-6.81,-0.85,0,*46
1499277926.71,39422,17.88,74284.3,5.21,-6.59,-0.73,0,*4B
1499277927.92,39423,17.88,74282.3,5.21,-6.35,-0.53,0,*42
1499277929.13,39424,17.88,74278.0,5.21,-6.13,-0.49,0,*4A
1499277930.34,39425,17.88,74268.3,5.21,-5.97,-0.49,0,*44
1499277931.57,39426,17.88,74282.0,5.21,-5.73,-0.49,0,*4D
1499277932.76,39427,17.88,74284.3,5.19,-5.47,-0.37,0,*49
1499277933.99,39428,17.88,74292.0,5.21,-5.11,-0.37,0,*4E
1499277935.23,39429,17.88,74296.3,5.21,-5.07,-0.41,0,*49
1499277936.46,39430,17.88,74300.3,5.21,-4.89,-0.41,0,*46
1499277937.69,39431,17.88,74300.3,5.21,-4.77,-0.41,0,*46
1499277938.9,39432,17.88,74298.8,5.21,-4.65,-0.41,0,*46
1499277940.1,39433,17.88,74300.0,5.21,-4.45,-0.37,0,*44
1499277941.32,39434,17.88,74300.3,5.21,-4.33,-0.41,0,*43
1499277942.54,39435,17.88,74300.0,5.21,-4.21,-0.41,0,*41
1499277943.73,39436,17.88,74300.0,5.19,-4.21,-0.53,0,*4A
1499277944.94,39437,17.88,74300.3,5.21,-4.21,-0.61,0,*41
1499277946.12,39438,17.88,74300.5,5.23,-4.21,-0.61,0,*4C
1499277947.3,39439,17.88,74304.8,5.23,-4.17,-0.61,0,*48
1499277948.48,39440,17.88,74302.5,5.23,-4.21,-0.65,0,*47
1499277949.67,39441,17.88,74300.3,5.23,-4.21,-0.77,0,*45
1499277950.86,39442,17.88,74304.3,5.23,-4.21,-0.73,0,*42
1499277952.05,39443,17.88,74300.5,5.23,-4.21,-0.65,0,*44
1499277953.23,39444,17.88,74302.3,5.23,-4.17,-0.65,0,*46
1499277954.41,39445,17.88,74300.8,5.23,-4.21,-0.65,0,*42
1499277955.6,39446,17.88,74302.0,5.23,-4.21,-0.53,0,*44
1499277956.78,39447,17.88,74306.3,5.23,-4.17,-0.45,0,*47
1499277957.97,39448,17.88,74310.0,5.23,-4.29,-0.37,0,*40
1499277959.15,39449,17.88,74302.5,5.23,-4.41,-0.41,0,*4E
1499277960.36,39450,17.88,74302.3,5.23,-4.33,-0.27,0,*43
1499277961.55,39451,17.88,74296.3,5.23,-4.33,-0.15,0,*43
1499277962.72,39452,17.88,74296.5,5.23,-4.45,-0.03,0,*76
1499277963.9,39453,17.88,74294.8,5.23,-4.53,-0.03,0,*70
1499277965.07,39454,17.88,74288.5,5.23,-4.53,0.09,0,*50
1499277966.27,39455,17.88,74298.8,5.25,-4.41,0.29,0,*66
1499277967.47,39456,17.88,74300.8,5.23,-4.57,0.33,0,*6F
1499277968.67,39457,17.88,74298.0,5.23,-4.53,0.47,0,*69
1499277969.86,39458,17.88,74296.3,5.23,-4.53,0.67,0,*64
1499277971.05,39459,17.88,74292.0,5.23,-4.45,0.75,0,*61
1499277972.26,39460,17.88,74288.0,5.23,-4.33,0.87,0,*67
1499277973.44,39461,17.88,74286.8,5.25,-4.25,1.01,0,*58
1499277974.65,39462,17.88,74290.0,5.23,-4.17,1.21,0,*5E
1499277975.85,39463,17.88,74294.8,5.23,-4.13,1.43,0,*5F
1499277977.06,39464,17.88,74292.5,5.23,-3.91,1.43,0,*55
1499277978.26,39465,17.88,74296.0,5.23,-3.75,1.47,0,*5A
1499277979.49,39466,17.88,74292.5,5.23,-3.51,1.47,0,*5F
1499277980.7,39467,17.88,74298.3,5.25,-3.35,1.59,0,*55
1499277981.9,39468,17.88,74302.0,5.25,-3.11,1.59,0,*5C
1499277983.1,39469,17.88,74296.0,5.23,-2.99,1.59,0,*5A
1499277984.3,39470,17.88,74296.8,5.23,-2.99,1.55,0,*5E
1499277985.5,39471,17.88,74290.8,5.23,-2.87,1.55,0,*50
1499277986.73,39472,17.88,74288.5,5.23,-2.75,1.55,0,*5E
1499277987.96,39473,17.88,74288.0,5.23,-2.63,1.67,0,*59
1499277989.16,39474,17.88,74290.8,5.25,-2.31,1.71,0,*58
1499277990.38,39475,17.88,74294.8,5.25,-1.99,1.83,0,*55
1499277991.59,39476,17.88,74296.0,5.25,-1.87,1.83,0,*59
1499277992.76,39477,17.88,74300.0,5.23,-1.75,1.79,0,*56
1499277993.97,39478,17.88,74300.3,5.25,-1.55,1.85,0,*5E
1499277995.18,39479,17.88,74300.5,5.25,-1.33,1.93,0,*58
1499277996.39,39480,17.88,74302.5,5.25,-1.25,1.85,0,*5E
1499277997.6,39481,17.88,74302.0,5.25,-1.21,1.97,0,*58
1499277998.83,39482,17.88,74300.3,5.25,-1.09,2.05,0,*59
1499278000.06,39483,17.88,74300.5,5.23,-1.01,1.93,0,*5A
1499278001.29,39484,17.88,74300.5,5.25,-0.97,2.09,0,*65
1499278002.51,39485,17.88,74300.8,5.25,-0.97,1.97,0,*60
1499278003.74,39486,17.88,74300.3,5.25,-0.85,1.93,0,*64
1499278004.95,39487,17.88,74300.5,5.25,-0.73,1.85,0,*6B
1499278006.15,39488,17.88,74304.3,5.25,-0.69,1.85,0,*6F
1499278007.36,39489,17.88,74302.5,5.25,-0.57,1.85,0,*63
1499278008.54,39490,17.88,74298.0,5.25,-0.49,1.83,0,*62
1499278009.74,39491,17.88,74298.0,5.29,-0.41,1.85,0,*61
1499278010.94,39492,17.88,74298.5,5.31,-0.33,1.79,0,*6D
1499278012.14,39493,17.88,74294.3,5.29,-0.23,1.79,0,*64
1499278013.34,39494,17.88,74298.5,5.29,-0.03,1.85,0,*52
1499278014.53,39495,17.88,74298.8,5.29,0.09,1.85,0,*74
1499278015.72,39496,17.88,74292.3,5.29,0.17,1.79,0,*4B
1499278016.94,39497,17.88,74284.8,5.29,0.33,1.85,0,*4F
1499278018.12,39498,17.88,74290.5,5.29,0.33,1.79,0,*43
1499278019.32,39499,17.88,74292.5,5.29,0.41,1.79,0,*47
1499278020.48,39500,17.88,74296.3,5.29,0.43,1.79,0,*44
1499278021.64,39501,17.88,74298.5,5.29,0.43,1.75,0,*49
1499278022.82,39502,17.88,74294.5,5.29,0.43,1.67,0,*49
1499278024.0,39503,17.88,74302.5,5.29,0.43,1.55,0,*49
1499278025.19,39504,17.88,74296.0,5.29,0.43,1.55,0,*4E
1499278026.4,39505,17.88,74300.8,5.29,0.51,1.47,0,*4F
1499278027.59,39506,17.88,74300.3,5.29,0.43,1.37,0,*48
1499278028.77,39507,17.88,74300.3,5.29,0.43,1.37,0,*49
1499278029.99,39508,17.88,74300.3,5.29,0.55,1.51,0,*41
1499278031.21,39509,17.88,74304.0,5.29,0.55,1.51,0,*40
1499278032.43,39510,17.88,74302.0,5.29,0.51,1.37,0,*4C
1499278033.65,39511,17.88,74300.3,5.29,0.51,1.37,0,*4D
1499278034.86,39512,17.88,74298.3,5.29,0.41,1.37,0,*4F
1499278036.11,39513,17.88,74300.0,5.31,0.51,1.37,0,*46
1499278037.32,39514,17.88,74300.3,5.31,0.41,1.41,0,*41
1499278038.5,39515,17.88,74300.3,5.29,0.41,1.41,0,*49
1499278039.71,39516,17.88,74300.0,5.29,0.41,1.51,0,*4B
1499278040.95,39517,17.88,74302.5,5.31,0.41,1.51,0,*43
1499278042.18,39518,17.88,74302.3,5.31,0.33,1.47,0,*4E
1499278043.42,39519,17.88,74300.3,5.31,0.33,1.51,0,*48
1499278044.66,39520,17.88,74302.3,5.31,0.29,1.51,0,*49
1499278045.86,39521,17.88,74300.8,5.31,0.33,1.41,0,*42
1499278047.1,39522,17.88,74300.3,5.31,0.33,1.29,0,*4F
1499278048.34,39523,17.88,74302.8,5.31,0.41,1.13,0,*42
1499278049.55,39524,17.88,74304.3,5.29,0.51,0.95,0,*72
1499278050.73,39525,17.88,74300.3,5.29,0.43,0.79,0,*72
1499278051.97,39526,17.88,74304.8,5.31,0.55,0.67,0,*70
1499278053.18,39527,17.88,74308.8,5.31,0.51,0.43,0,*73
1499278054.43,39528,17.88,74308.8,5.31,0.55,0.21,0,*7C
1499278055.61,39529,17.88,74306.3,5.33,0.59,0.01,0,*41
1499278056.83,39530,17.88,74308.5,5.31,0.51,-0.29,0,*54
1499278058.05,39531,17.88,74312.0,5.31,0.63,-0.65,0,*5C
1499278059.26,39532,17.88,74308.3,5.33,0.67,-1.01,0,*6A
1499278060.48,39533,17.88,74310.8,5.31,0.63,-1.29,0,*67
1499278061.69,39534,17.88,74312.3,5.33,0.79,-1.51,0,*66
1499278062.93,39535,17.88,74312.5,5.35,0.67,-1.87,0,*65
1499278064.14,39536,17.88,74308.3,5.33,0.55,-2.35,0,*6B
1499278065.36,39537,17.88,74310.3,5.33,0.37,-2.55,0,*68
1499278066.55,39538,17.88,74312.0,5.33,0.21,-2.79,0,*6E
1499278067.72,39539,17.88,74308.0,5.33,0.09,-3.11,0,*5A
1499278068.89,39540,17.88,74310.3,5.33,-0.03,-3.19,0,*7B
1499278070.07,39541,17.88,74310.0,5.33,-0.15,-3.39,0,*4F
1499278071.3,39542,17.88,74308.3,5.33,-0.27,-3.63,0,*42
1499278072.48,39543,17.88,74306.8,5.33,-0.41,-3.79,0,*48
1499278073.65,39544,17.88,74306.3,5.33,-0.61,-3.87,0,*4C
1499278074.87,39545,17.88,74308.3,5.35,-0.73,-4.09,0,*49
1499278076.05,39546,17.88,74306.8,5.33,-0.73,-4.17,0,*43
1499278077.23,39547,17.88,74308.0,5.33,-0.77,-4.17,0,*46
1499278078.43,39548,17.88,74304.3,5.33,-0.89,-4.41,0,*4B
1499278079.68,39549,17.88,74306.0,5.35,-1.01,-4.53,0,*7E
1499278080.9,39550,17.88,74306.8,5.33,-1.05,-4.57,0,*70
1499278082.11,39551,17.88,74308.0,5.33,-1.13,-4.65,0,*77
1499278083.33,39552,17.88,74308.3,5.33,-1.29,-4.77,0,*7E
1499278084.57,39553,17.88,74302.5,5.33,-1.39,-4.85,0,*73
1499278085.75,39554,17.88,74298.8,5.33,-1.51,-4.99,0,*77
1499278086.93,39555,17.88,74296.8,5.33,-1.63,-4.99,0,*77
1499278088.14,39556,17.88,74298.3,5.33,-1.75,-5.11,0,*72
1499278089.39,39557,17.88,74298.8,5.35,-1.79,-5.31,0,*7B
1499278090.6,39558,17.88,74294.5,5.33,-1.79,-5.19,0,*78
1499278091.81,39559,17.88,74292.5,5.33,-1.75,-4.93,0,*76
1499278093.05,39560,17.88,74292.3,5.33,-1.87,-4.93,0,*71
1499278094.28,39561,17.88,74294.3,5.33,-1.91,-4.93,0,*77
1499278095.52,39562,17.88,74292.3,5.33,-1.99,-4.93,0,*7C
1499278096.76,39563,17.88,74292.0,5.33,-2.11,-4.93,0,*7E
1499278097.97,39564,17.88,74296.0,5.33,-2.15,-4.81,0,*7E
1499278099.18,39565,17.88,74294.5,5.33,-2.27,-4.77,0,*77
1499278100.37,39566,17.88,74294.5,5.33,-2.35,-4.65,0,*74
1499278101.58,39567,17.88,74294.3,5.35,-2.43,-4.57,0,*73
1499278102.76,39568,17.88,74294.8,5.33,-2.43,-4.45,0,*79
1499278103.98,39569,17.88,74294.3,5.33,-2.55,-4.29,0,*75
1499278105.19,39570,17.88,74298.8,5.33,-2.67,-4.21,0,*74
1499278106.38,39571,17.88,74292.5,5.33,-2.79,-3.79,0,*70
1499278107.58,39572,17.88,74294.0,5.33,-2.79,-3.51,0,*79
1499278108.76,39573,17.88,74292.3,5.33,-2.87,-3.31,0,*7F
1499278109.94,39574,17.88,74290.8,5.33,-2.87,-3.15,0,*7E
1499278111.12,39575,17.88,74284.0,5.33,-2.91,-2.91,0,*75
1499278112.34,39576,17.88,74288.5,5.33,-2.99,-2.63,0,*73
1499278113.52,39577,17.88,74290.8,5.33,-3.03,-2.43,0,*72
1499278114.73,39578,17.88,74288.0,5.33,-2.99,-2.03,0,*7B
1499278115.95,39579,17.88,74292.8,5.33,-3.03,-1.87,0,*77
1499278117.13,39580,17.88,74296.3,5.33,-2.99,-1.51,0,*78
1499278118.34,39581,17.88,74296.5,5.33,-2.99,-1.35,0,*7B
1499278119.55,39582,17.88,74294.0,5.33,-2.87,-1.13,0,*73